Lapse_Rate
1.2 2.3 1.5 2.1 1.9 3.6 3.1 2.7 2.8 3.2 3.7 4.1 4.2 4.3 4.0 4.3 5.1 1.0 0.9 1.8 2.0 2.5 3.1 3.6 4.1 4.6 5.1 5.6 5.6 4.8 4.9 5.1 5.4 5.5 5.8 6.6 7.2 6.8 6.6 6.7 6.5 6.6 6.5
2.6 1.6 1.1 0.8 1.6 3.2 3.6 3.5 2.4 2.7 2.9 3.5 2.8 4.4 3.9 4.2 4.3 4.2 1.2 1.6 1.8 2.0 2.2 2.3 2.8 3.5 4.0 4.2 4.4 4.5 4.3 4.5 5.1 5.1 4.8 5.1 5.6 6.9 7.1 6.5 6.4 6.5 6.6
4.0 2.4 0.9 0.7 1.7 3.5 3.8 3.8 3.6 3.7 2.2 4.2 3.2 3.3 4.1 4.5 4.5 4.3 3.9 1.4 2.3 2.1 2.1 2.0 2.2 2.5 2.9 3.1 3.2 3.3 3.4 3.8 4.3 4.7 4.7 5.0 4.8 5.0 6.0 6.9 6.8 6.4 6.5
5.1 2.7 1.3 0.8 2.9 2.8 2.3 1.1 1.3 1.8 1.8 2.2 2.9 3.8 3.1 3.9 4.5 4.7 4.5 4.4 3.7 2.9 2.3 2.6 2.6 2.5 2.6 2.7 2.8 2.8 2.8 3.0 3.2 3.2 4.1 4.6 4.6 4.7 4.2 5.3 6.3 6.6 6.5
4.9 2.7 0.7 1.2 2.9 0.8 0.5 1.2 1.2 1.2 1.2 2.0 3.3 3.5 3.7 3.6 3.6 5.9 3.7 4.3 4.3 4.0 4.4 4.0 3.8 3.7 3.0 3.3 3.0 2.8 2.7 2.7 2.8 2.8 3.1 3.3 4.1 4.8 4.7 4.7 5.3 5.9 6.7
4.2 2.7 1.2 1.0 1.5 -0.2 0.1 0.5 1.0 1.5 1.8 2.0 5.0 4.8 3.6 3.7 3.2 3.4 4.4 6.0 6.1 5.5 4.9 4.5 4.4 4.4 3.8 4.2 4.0 3.9 3.4 3.4 3.2 3.0 3.2 3.5 3.6 3.9 4.8 5.6 4.9 5.1 5.3
3.6 2.0 0.1 0.7 -0.1 -0.3 -0.2 0.5 1.2 1.3 1.3 2.4 2.3 2.1 2.6 4.0 3.2 3.0 3.9 4.7 5.6 6.4 6.4 6.0 5.3 5.7 6.5 7.0 6.6 5.8 4.7 4.5 3.7 3.5 3.5 3.7 4.0 4.2 4.3 4.9 5.5 5.3 5.1
3.3 1.9 0.9 0.5 0.2 -0.3 0.3 0.5 0.9 0.8 1.2 1.4 1.9 3.1 2.9 3.7 4.0 4.0 3.9 5.1 5.6 6.4 6.6 7.3 7.6 7.6 7.2 6.7 7.0 7.1 6.0 4.4 3.9 3.9 3.7 3.9 4.2 4.6 5.0 4.9 5.2 5.9 6.0
4.3 3.5 1.8 0.8 0.6 -0.0 -0.3 -0.4 0.2 0.4 0.7 1.9 2.7 2.0 3.7 2.8 3.5 3.8 4.4 4.3 4.9 4.8 5.1 6.7 7.8 7.8 8.1 7.8 7.9 7.8 7.6 6.8 6.2 4.4 4.0 4.2 4.7 5.1 5.3 5.1 5.1 5.1 5.8
4.6 4.1 3.3 1.8 1.6 0.2 0.2 -0.1 0.7 0.3 0.9 1.3 2.5 3.7 3.2 3.0 3.0 3.5 3.5 4.4 4.9 5.5 5.5 4.7 6.1 7.4 8.1 7.9 8.5 8.5 8.2 8.5 8.6 7.2 6.1 5.8 5.4 5.4 5.6 5.6 5.5 5.3 5.1
5.2 4.5 4.0 2.9 2.1 1.6 0.6 0.4 0.7 0.5 0.5 1.5 2.0 2.2 2.9 2.9 3.4 2.9 2.8 3.1 3.9 4.8 4.8 5.0 5.5 6.1 7.6 8.0 7.9 7.9 8.5 8.8 8.6 8.4 7.7 8.3 8.2 8.7 8.5 8.8 8.5 6.6 5.7
5.7 5.3 4.6 4.2 3.0 2.2 1.3 1.0 0.6 0.9 0.7 1.6 2.7 3.5 2.8 2.4 2.5 3.4 3.7 4.0 4.0 3.5 4.5 4.3 4.9 5.8 7.3 7.8 8.2 8.9 8.8 8.9 8.8 8.7 8.0 7.7 8.7 9.0 9.3 9.4 9.2 9.2 8.7
5.6 5.7 4.6 4.6 3.8 2.3 1.1 1.0 1.0 1.1 1.3 1.4 2.6 3.1 3.3 3.3 3.4 3.9 3.8 3.3 4.1 3.4 4.6 4.4 4.8 6.3 7.4 8.0 8.0 8.7 8.6 9.1 9.1 9.2 9.6 9.5 9.6 9.6 9.4 9.5 8.3 7.9 8.9
5.8 5.6 5.1 4.4 4.3 2.6 2.0 1.3 0.8 1.0 1.9 1.8 2.7 3.0 2.9 2.9 3.1 3.4 3.4 3.7 3.4 3.9 4.2 4.8 4.6 5.2 6.8 7.6 8.1 8.8 8.2 8.8 9.3 9.5 9.6 9.7 9.7 9.6 9.5 9.6 8.6 8.3 8.1
5.9 5.6 5.8 4.7 4.7 4.0 2.9 1.6 1.2 1.3 1.8 1.9 2.2 2.8 2.7 3.0 3.5 3.9 4.0 4.1 4.2 4.5 4.3 3.9 5.1 4.9 6.4 7.8 8.4 8.9 8.6 8.9 9.6 9.7 9.7 9.7 9.7 9.7 9.6 9.5 8.5 8.2 8.1
5.6 6.0 6.1 5.3 4.8 4.5 3.6 2.3 1.4 1.7 1.8 1.7 2.3 2.8 2.9 2.7 3.5 3.9 3.9 4.4 4.5 4.5 5.2 5.1 4.6 5.2 6.5 8.3 8.9 9.1 8.6 9.2 9.3 9.6 9.7 9.6 9.6 9.6 9.6 9.2 8.8 8.5 8.2
6.5 5.9 6.6 5.6 4.9 5.0 4.3 3.2 2.2 1.8 2.3 2.6 3.6 3.4 3.3 3.6 3.9 4.3 4.3 4.2 4.5 4.8 5.0 5.5 5.6 6.1 6.4 6.3 7.0 7.9 8.2 8.1 8.2 9.1 9.5 9.7 9.4 9.0 8.8 8.9 8.9 8.6 8.5
7.3 6.6 6.3 6.1 5.4 5.4 4.6 3.8 2.7 3.5 3.0 2.8 3.0 3.8 4.1 6.0 4.8 4.2 3.9 4.4 4.6 5.1 5.3 5.7 5.4 5.8 6.2 6.2 6.3 6.7 7.7 9.0 8.4 9.1 9.6 9.5 9.1 9.1 8.7 8.6 8.5 8.4 8.3
7.9 7.0 6.1 6.2 6.0 5.7 5.1 4.6 3.5 3.1 3.1 3.1 3.3 3.5 3.9 4.7 4.6 4.4 4.7 4.8 5.1 6.7 5.4 5.4 6.1 5.7 5.7 6.2 6.9 6.6 7.1 7.2 7.6 8.0 8.5 9.1 8.6 7.8 8.4 8.6 8.2 8.0 7.9
8.3 6.9 5.9 6.4 6.1 6.0 5.7 5.3 4.5 3.4 3.7 3.7 4.1 4.2 4.6 5.1 5.1 5.1 5.4 5.6 6.2 5.4 5.2 5.3 5.6 6.1 6.6 6.5 7.0 6.7 6.8 7.1 7.5 8.3 8.5 8.8 8.3 8.2 7.7 8.3 7.9 8.1 7.4
8.3 7.1 6.2 6.3 6.2 6.4 6.5 5.7 5.0 4.0 3.5 4.2 4.7 5.2 5.3 6.1 8.0 7.0 6.3 5.1 5.0 4.6 4.8 5.4 6.3 6.6 7.6 7.1 6.4 6.7 6.9 7.5 7.3 6.8 7.3 7.4 7.6 7.5 7.5 7.5 7.6 7.5 7.1
7.5 6.8 6.4 6.5 6.3 7.6 7.6 6.8 5.1 4.1 4.3 4.5 4.3 5.2 5.8 7.8 8.0 9.0 8.8 9.0 7.9 5.8 5.8 5.8 7.1 7.3 7.6 6.9 6.9 7.4 7.3 6.9 6.9 8.0 6.7 6.5 7.4 7.1 7.2 6.7 6.5 7.3 7.0
7.5 7.2 6.6 6.7 6.4 6.8 8.1 7.4 6.3 4.1 3.8 3.9 4.5 4.8 6.3 8.0 7.3 6.5 8.2 8.9 8.8 9.5 9.4 7.7 7.5 6.9 7.0 6.5 6.6 6.9 7.2 6.4 6.5 7.1 6.9 6.4 7.1 6.7 7.1 7.2 6.7 7.0 7.0
7.8 7.4 6.7 6.3 6.3 6.4 8.0 7.8 7.3 3.3 3.2 3.9 4.3 4.8 5.3 6.0 6.2 6.7 6.3 5.5 5.7 6.1 6.9 8.0 7.4 6.7 6.7 7.4 7.6 7.7 7.0 6.7 6.6 6.2 5.6 6.5 6.5 6.5 5.7 5.6 6.5 6.9 7.0
6.2 7.8 6.5 5.8 6.0 6.2 7.8 7.6 6.8 3.8 4.0 4.3 5.2 5.5 5.5 5.6 7.8 8.6 6.3 5.0 5.3 6.1 9.0 9.1 8.5 8.3 8.7 9.1 8.5 6.9 6.5 6.6 6.3 5.4 5.3 5.6 5.9 6.1 5.4 5.3 5.5 6.9 6.7
5.7 8.0 6.5 6.2 6.3 5.4 7.2 7.2 6.1 4.4 4.1 4.5 5.2 5.6 7.6 6.0 8.3 8.3 5.8 5.2 5.0 5.6 5.8 5.9 6.4 6.2 7.4 6.2 6.4 5.6 5.2 6.0 6.2 6.7 6.0 5.3 5.4 5.9 6.2 5.7 5.8 6.2 6.3
Wind_Speed
5 10 9 11 9 7 6 5 5 4 2 4 6 5 5 6 8 13 12 10 7 7 7 8 8 8 9 9 10 10 11 12 11 13 10 7 10 10 11 10 11 10 9
8 6 5 6 8 9 8 7 5 2 2 3 3 2 3 3 6 7 12 9 8 7 7 7 7 7 8 8 8 8 9 9 10 11 12 13 11 12 14 13 13 12 12
11 9 4 5 8 10 10 6 4 3 2 0 3 4 4 0 2 7 8 11 8 7 7 6 6 6 6 7 7 8 9 9 9 9 10 11 12 13 10 15 16 15 14
15 10 5 5 12 10 7 4 3 2 2 2 2 3 3 6 5 6 8 4 6 6 6 4 4 4 3 5 5 7 7 9 9 10 11 11 11 11 13 10 15 18 17
16 10 5 7 13 7 4 3 2 3 3 3 3 4 3 4 4 7 10 10 11 8 2 3 2 4 4 3 4 5 5 7 9 10 11 11 11 12 12 13 13 12 21
17 10 7 7 11 5 5 4 4 3 3 3 2 3 3 4 3 3 4 9 12 12 9 6 5 6 7 4 5 6 4 7 8 9 10 11 12 12 13 12 12 13 13
16 10 4 6 7 6 6 6 4 6 3 2 1 3 4 5 5 5 5 5 5 11 10 10 11 8 5 5 8 6 7 10 9 8 11 11 12 13 12 14 14 13 14
16 10 7 6 7 6 7 7 5 3 4 5 3 1 2 3 2 4 4 4 3 3 3 7 6 4 4 5 7 7 7 5 7 11 12 13 13 13 14 14 15 15 14
15 14 8 7 7 6 6 6 6 7 4 3 5 4 0 3 1 2 4 4 4 1 4 2 3 9 8 5 5 6 1 5 10 11 13 14 14 15 15 16 16 16 15
11 14 11 7 8 5 7 7 5 5 4 5 1 3 2 3 2 2 2 2 3 3 1 3 4 4 6 6 6 5 8 11 9 10 13 15 15 16 17 17 18 17 18
10 13 11 10 9 7 7 8 7 7 5 4 3 2 2 0 1 2 3 3 3 2 1 1 4 7 8 6 5 7 9 9 12 16 15 15 16 17 18 18 18 20 20
9 12 12 12 9 10 9 8 7 9 6 5 3 4 4 3 3 3 3 3 3 3 2 4 2 4 9 11 13 14 13 13 13 14 16 18 21 20 19 20 21 22 21
9 12 15 12 10 9 8 7 7 7 7 6 6 4 3 3 3 2 1 2 2 2 2 3 4 8 10 11 12 14 13 11 12 17 19 20 20 20 20 20 22 21 22
11 14 14 14 13 9 9 8 5 6 6 6 7 5 4 4 3 3 4 3 3 3 2 5 3 4 7 11 11 13 12 13 16 17 19 22 22 22 23 23 22 24 23
11 14 15 15 13 12 11 9 7 7 7 6 7 6 3 3 3 4 3 3 4 3 3 3 2 4 8 13 16 15 14 16 21 21 21 20 22 25 25 25 25 24 23
14 15 15 16 13 13 12 10 7 8 7 5 5 7 5 4 4 4 4 3 3 4 5 2 4 4 7 9 16 17 15 21 21 24 24 24 23 22 26 26 25 24 23
12 14 17 16 15 15 15 12 11 10 9 7 6 7 7 7 4 3 2 2 3 3 5 4 4 4 4 6 7 13 19 14 15 23 28 24 21 23 29 29 27 24 25
13 15 17 17 16 15 16 15 14 13 12 10 8 7 7 4 5 5 4 5 5 5 4 7 3 3 5 6 6 8 9 18 15 19 22 24 25 26 27 27 26 25 24
14 14 17 17 16 15 16 15 15 13 10 9 8 8 7 7 5 4 5 5 4 3 3 3 5 3 3 4 9 7 8 12 17 23 26 26 27 30 28 27 28 27 24
15 13 16 16 15 15 15 15 14 10 10 8 8 8 8 7 7 5 4 4 3 3 3 3 4 5 6 5 8 9 10 7 8 11 19 25 31 31 30 30 29 27 28
12 13 15 15 13 13 12 15 14 12 9 8 8 7 7 7 8 8 3 2 3 3 3 4 6 6 9 7 10 8 10 11 11 11 12 11 11 12 16 24 25 27 29
11 10 15 15 14 12 20 21 14 11 9 8 7 7 6 11 11 11 12 12 9 4 5 4 8 10 12 10 10 9 9 11 17 10 13 13 11 11 9 12 19 22 28
10 9 14 15 14 12 22 23 18 8 8 7 7 7 5 4 8 5 7 10 10 13 14 9 11 10 12 6 10 14 16 14 14 14 11 12 10 10 9 13 24 24 28
15 9 13 14 13 10 23 24 20 8 7 8 7 7 7 5 5 4 1 3 5 6 8 8 9 8 9 13 14 14 16 17 15 14 13 12 9 10 8 9 23 24 25
17 10 11 13 14 11 25 24 17 8 7 8 7 7 7 6 5 4 3 5 5 6 11 18 23 26 26 26 23 13 12 11 12 12 11 6 5 7 7 6 9 25 28
14 10 9 13 17 12 23 24 16 6 6 5 6 6 11 8 8 7 3 4 5 5 6 10 10 13 17 18 27 14 10 11 11 8 3 6 5 5 3 5 9 9 15
Wind_Direction
182 171 152 161 187 166 168 147 174 167 128 62 39 33 66 76 69 127 121 107 89 72 65 57 51 52 49 48 43 41 34 28 20 21 11 287 233 228 227 229 223 224 224
176 160 163 167 165 185 163 175 163 137 173 161 133 89 31 108 113 116 140 138 126 105 78 58 50 48 49 48 43 34 25 18 16 18 14 9 356 258 235 222 227 227 226
181 167 166 166 179 171 179 171 145 141 105 234 202 183 159 89 156 148 135 160 155 132 110 79 51 44 42 37 31 23 18 13 7 1 356 353 355 349 287 239 226 228 228
188 168 172 172 176 166 151 149 159 198 177 184 247 224 165 176 218 158 135 116 119 154 143 94 60 29 29 23 17 11 8 4 0 351 343 335 337 337 348 358 259 231 230
194 171 170 173 161 152 159 169 169 163 187 206 237 254 219 186 197 190 166 176 184 168 182 304 310 305 234 349 348 357 356 356 346 342 337 334 330 324 330 331 3 303 236
192 180 174 169 158 155 172 177 162 194 178 189 261 299 245 203 179 218 199 199 192 175 184 205 254 284 219 285 309 326 331 341 339 335 332 330 327 320 317 317 316 319 336
190 187 177 169 159 165 181 177 177 173 198 200 84 294 265 219 194 203 200 226 244 187 187 202 230 238 253 291 305 300 300 317 323 330 329 322 315 317 312 301 308 309 310
189 186 175 175 167 161 178 180 172 165 184 181 169 143 301 334 279 220 192 186 199 192 165 240 238 245 281 268 260 269 254 286 314 322 324 324 319 310 309 305 303 302 308
188 190 180 172 170 165 179 179 175 165 179 205 187 161 145 219 159 251 193 179 154 196 247 207 301 270 260 262 293 305 245 240 299 310 315 315 313 310 305 304 301 301 296
187 192 186 180 175 169 177 179 173 174 155 179 181 226 208 155 159 345 338 179 188 214 267 277 273 307 302 290 257 267 292 297 287 294 297 300 303 304 303 299 297 293 289
193 189 191 187 180 179 175 172 175 173 180 163 159 155 209 208 192 133 262 304 353 307 308 272 289 285 277 273 266 253 265 275 284 289 294 296 298 299 298 294 290 285 285
205 194 196 194 187 181 180 179 174 173 177 185 180 166 167 163 199 185 204 253 227 281 305 296 290 292 287 280 268 256 253 260 272 284 290 294 297 295 294 293 293 284 277
203 203 194 195 196 182 176 164 167 170 175 172 183 183 168 181 156 157 142 249 243 284 284 284 265 266 269 270 278 270 260 264 271 277 286 286 292 291 291 289 287 283 280
203 202 198 198 193 178 172 163 159 166 168 174 181 178 175 186 167 169 181 184 308 248 279 247 288 286 307 311 303 311 311 294 295 289 283 284 283 283 284 281 280 279 278
199 196 197 198 189 181 173 163 162 167 165 173 181 180 172 191 181 189 186 172 171 283 287 253 276 284 292 295 287 289 282 283 287 288 285 281 279 277 275 276 274 275 273
198 193 192 192 188 181 175 164 165 168 167 179 173 177 188 193 205 204 194 200 184 198 255 255 267 270 277 290 295 293 294 290 285 287 284 281 281 277 283 278 267 274 269
206 192 189 189 186 182 179 172 174 168 173 175 172 178 189 187 192 197 194 215 219 210 251 271 254 261 282 276 287 306 293 283 278 281 282 273 274 280 281 274 268 267 261
220 191 183 188 188 185 181 178 175 178 174 175 184 175 186 184 201 206 203 226 231 239 230 267 253 277 257 263 272 277 270 275 266 272 277 270 268 276 274 270 266 261 253
226 192 181 184 188 187 182 184 179 174 171 170 172 173 182 188 207 206 216 223 233 246 255 266 284 275 267 303 292 276 283 276 268 266 268 270 276 281 271 267 262 251 240
229 189 179 183 187 188 185 183 178 169 169 170 173 174 182 187 191 208 226 240 265 298 301 298 295 301 288 281 288 285 286 268 271 272 273 272 275 275 260 272 254 242 225
270 189 175 178 184 188 186 184 177 174 162 164 166 172 177 176 201 213 174 256 299 291 285 282 285 285 284 288 277 278 277 279 272 272 272 264 261 260 262 261 260 228 216
268 195 175 177 182 191 191 182 173 166 158 157 165 174 171 200 219 228 245 256 243 228 244 250 270 276 288 285 278 280 283 285 288 260 259 260 244 252 243 245 229 215 207
260 233 178 178 182 185 187 182 165 151 147 151 160 163 175 182 195 174 234 267 285 289 289 283 280 280 284 289 290 284 280 272 273 283 268 255 234 230 246 237 213 209 203
275 258 183 172 172 179 183 179 163 143 143 159 162 169 170 160 153 142 158 285 283 277 276 277 277 290 294 294 286 287 289 282 278 274 262 258 234 229 226 219 203 197 192
282 255 182 162 164 173 176 174 157 143 150 159 163 156 147 149 173 233 213 259 286 281 293 307 309 305 300 296 298 297 289 290 285 279 272 215 198 206 199 190 189 190 184
265 258 176 161 160 158 174 171 157 142 146 153 157 158 161 163 190 220 211 260 294 281 299 304 299 293 296 295 298 295 284 278 273 279 230 177 174 165 173 161 172 175 179